This demonstration page uses our WeatherBlox Daily Observations layout. Learn more.

Left ArrowRight Arrow

Hourly Observations for April 14, 2019

Temp ( °F °C ) Dew Point ( °F °C ) Humidity (%) Winds ( mph kmh ) Pressure ( in mb ) Visibility ( mi km ) Precip ( " mm )
12:52 am 00:52 Mostly Cloudy 39 3.9 26 -3.3 60 60 N 14 22 30.01 1016 10 16 0.00 0.00
1:52 am 01:52 Cloudy 38 3.3 26 -3.3 62 62 N 13 20 30.01 1016 10 16 0.00 0.00
2:52 am 02:52 Mostly Cloudy 36 2.2 25 -3.9 64 64 NNE 7 11 30.05 1018 10 16 0.00 0.00
3:52 am 03:52 Mostly Cloudy 35 1.7 25 -3.9 67 67 N 12 19 30.00 1016 10 16 0.00 0.00
4:52 am 04:52 Cloudy 35 1.7 26 -3.3 70 70 N 12 19 29.98 1015 10 16 0.00 0.00
5:52 am 05:52 Mostly Cloudy 33 0.6 26 -3.3 75 75 N 9 15 29.97 1015 10 16 0.00 0.00
6:52 am 06:52 Mostly Cloudy 32 0 25 -3.9 75 75 N 12 19 29.97 1015 10 16 0.00 0.00
7:52 am 07:52 Mostly Sunny 33 0.6 26 -3.3 75 75 N 9 15 29.96 1015 10 16 0.00 0.00
8:52 am 08:52 Mostly Sunny 36 2.2 26 -3.3 67 67 N 7 11 29.95 1014 10 16 0.00 0.00
9:52 am 09:52 Mostly Sunny 40 4.4 26 -3.3 58 58 NE 8 13 29.93 1013 10 16 0.00 0.00
10:52 am 10:52 Mostly Sunny 42 5.6 26 -3.3 53 53 NNE 8 13 29.91 1013 10 16 0.00 0.00
11:52 am 11:52 Mostly Sunny 45 7.2 28 -2.2 52 52 NW 9 15 29.90 1013 10 16 0.00 0.00
12:52 pm 12:52 Mostly Sunny 47 8.3 27 -2.8 46 46 NNW 7 11 29.89 1012 10 16 0.00 0.00
1:52 pm 13:52 Mostly Sunny 50 10 26 -3.3 39 39 NNE 8 13 29.86 1011 10 16 0.00 0.00
2:52 pm 14:52 Mostly Sunny 52 11.1 26 -3.3 37 37 NNE 9 15 29.85 1011 10 16 0.00 0.00
3:52 pm 15:52 Mostly Sunny 54 12.2 25 -3.9 33 33 NNE 6 9 29.83 1010 10 16 0.00 0.00
4:52 pm 16:52 Partly Cloudy 54 12.2 26 -3.3 34 34 NNE 6 9 29.81 1010 10 16 0.00 0.00
5:52 pm 17:52 Partly Cloudy 55 12.8 26 -3.3 33 33 N 6 9 29.82 1010 10 16 0.00 0.00
6:52 pm 18:52 Partly Cloudy 54 12.2 25 -3.9 33 33 Calm 29.83 1010 10 16 0.00 0.00
7:52 pm 19:52 Mostly Cloudy 53 11.7 25 -3.9 34 34 E 3 6 29.83 1010 10 16 0.00 0.00
8:52 pm 20:52 Mostly Cloudy 49 9.4 28 -2.2 44 44 ESE 7 11 29.83 1010 10 16 0.00 0.00
9:52 pm 21:52 Mostly Cloudy 50 10 26 -3.3 39 39 ESE 6 9 29.84 1011 10 16 0.00 0.00
10:52 pm 22:52 Cloudy 49 9.4 25 -3.9 39 39 ESE 10 17 29.85 1011 10 16 0.00 0.00
11:52 pm 23:52 Cloudy 49 9.4 26 -3.3 41 41 SE 12 19 29.86 1011 10 16 0.00 0.00

Powered by AerisWeather